Flag for Russia Weather past 2 weeks in Yuzhno-Sakhalinsk, Russia

23 °F

Passing clouds.

Feels Like: 18 °F
Forecast: 10 / 31 °F
Wind: 3 mph from North

Location: Yuzhno Airport-Sakhalinsk

Current Time: Nov 29, 2015 at 1:26:57 AM

Latest Report: Nov 29, 2015 at 1:00 AM

Visibility: N/A

Pressure: 30.09 "Hg

Humidity: 86%

Dew point: 19 °F

Location of Yuzhno-SakhalinskLocation

Historic Weather in Yuzhno-Sakhalinsk — Graph


Yuzhno-Sakhalinsk temperature yesterday

Maximum temperature yesterday: 30 °F (at 12:00 AM)
Minimum temperature yesterday: 21 °F (at 11:00 PM)
Average temperature yesterday: 27 °F

Past Weeks' High & Low Weather Summary

High55 °F (Nov 15, 2:30 PM)100% (Nov 14, 12:00 AM)30.45 "Hg (Nov 14, 12:00 AM)
Low0 °F (Nov 25, 10:00 PM)26% (Nov 16, 2:30 PM)29.56 "Hg (Nov 27, 11:00 PM)
Average27 °F78%30.12 "Hg
* Reported Midnight between Nov 13 and Nov 14 — Midnight between Nov 28 and Nov 29, Yuzhno-Sakhalinsk, Weather by CustomWeather, © 2015

Note: Actual official high and low records may vary slightly from our data, if they occured in-between our weather recording intervals... More about our weather records


Yuzhno-Sakhalinsk weather history for previous 24 hours

Time TempWeatherWind HumidityBarometerVisibility
12:00 AM
Sun, Nov 29
25 °FPassing clouds.3 mph86%30.09 "HgN/A
11:30 PM
Sat, Nov 28
23 °FPassing clouds.3 mph86%30.09 "HgN/A
11:00 PM21 °FPassing clouds.3 mph93%30.09 "HgN/A
10:30 PM23 °FPassing clouds.1 mph93%30.07 "HgN/A
10:00 PM23 °FPassing clouds.6 mph93%30.07 "HgN/A
9:30 PM25 °FPassing clouds.8 mph86%30.07 "HgN/A
9:00 PM27 °FPassing clouds.10 mph86%30.07 "HgN/A
8:30 PM27 °FPassing clouds.8 mph86%30.04 "HgN/A
8:00 PM27 °FPassing clouds.10 mph93%30.04 "HgN/A
7:30 PM25 °FPassing clouds.8 mph93%30.04 "HgN/A
7:00 PM27 °FPassing clouds.13 mph86%30.04 "HgN/A
6:30 PM28 °FPassing clouds.13 mph86%30.01 "HgN/A
6:00 PM28 °FPassing clouds.15 mph86%30.01 "HgN/A
4:30 PM28 °FSnow flurries. Partly sunny.13 mph93%29.98 "Hg4 mi
4:00 PM28 °FSnow flurries. Partly sunny.15 mph93%29.98 "Hg1 mi
3:30 PM28 °FSnow flurries. Partly sunny.17 mph93%29.95 "Hg2 mi
2:30 PM28 °FSnow flurries. Partly sunny.13 mph93%29.92 "Hg2 mi
2:00 PM28 °FSnow flurries. Partly sunny.13 mph93%29.89 "Hg2 mi
1:30 PM28 °FSnow flurries. Partly sunny.15 mph93%29.89 "Hg2 mi
1:00 PM28 °FSnow flurries. Partly sunny.15 mph93%29.89 "Hg1 mi
12:30 PM28 °FSnow flurries. Partly sunny.15 mph93%29.86 "Hg1 mi
12:00 PM28 °FSnow showers. Ice fog.17 mph93%29.86 "Hg1 mi
11:00 AM27 °FSnow showers. Ice fog.17 mph93%29.83 "Hg1 mi
10:00 AM27 °FSnow showers. Ice fog.20 mph93%29.83 "Hg1 mi
9:00 AM27 °FSnow showers. Ice fog.20 mph100%29.80 "Hg1 mi
8:00 AM28 °FHeavy snow. Ice fog.24 mph93%29.77 "Hg1 mi
7:00 AM28 °FHeavy snow. Ice fog.26 mph93%29.74 "Hg1 mi
6:00 AM28 °FHeavy snow. Ice fog.26 mph93%29.71 "Hg0 mi
5:00 AM28 °FHeavy snow. Ice fog.22 mph93%29.68 "Hg0 mi
4:00 AM28 °FHeavy snow. Ice fog.22 mph100%29.65 "Hg0 mi
3:00 AM30 °FHeavy snow. Ice fog.22 mph93%29.62 "Hg0 mi
2:00 AM28 °FHeavy snow. Ice fog.22 mph100%29.59 "Hg0 mi
1:00 AM30 °FHeavy snow. Ice fog.22 mph93%29.56 "Hg0 mi
Weather by CustomWeather, © 2015

See weather overviewHow to use our weather pages